Tracking 19817 objects as of 19-Aug-2019
HD Live streaming from Space Station
objects crossing your sky now

TITAN 3C TRANSTAGE R/B

Track TITAN 3C TRANSTAGE R/B now!


NORAD ID: 12932
Int'l Code: 1981-107C
Perigee: 31,663.3 km
Apogee: 40,306.3 km
Inclination: 6.5 °
Period: 1,445.9 minutes
Semi major axis: 42355 km
RCS: Unknown
Launch date: October 31, 1981
Source: United States (US)
Launch site: AIR FORCE EASTERN TEST RANGE (AFETR)

Note: This is a ROCKET BODY
aabbcc
Your satellite tracking list
Your tracking list is empty




NASA's NSSDC Master Catalog

Two Line Element Set (TLE):
1 12932U 81107C   19230.48832167 +.00000046 +00000-0 +00000-0 0  9998
2 12932 006.5112 345.6319 1020280 094.1820 277.6250 00.99594088001363
Source of the keplerian elements: McCants